Year,Month,Day,Hour,Minute,Value (Times are PST for temperature in C)
2008,11,17,08,39,5.50
2008,11,17,08,40,5.50
2008,11,17,08,41,5.60
2008,11,17,08,42,5.60
2008,11,17,08,43,5.60
2008,11,17,08,44,5.60
2008,11,17,08,45,5.60
2008,11,17,08,46,5.60
2008,11,17,08,47,5.60
2008,11,17,08,48,5.60
2008,11,17,08,49,5.60
2008,11,17,08,50,5.60
2008,11,17,08,51,5.70
2008,11,17,08,52,5.70
2008,11,17,08,53,5.70
2008,11,17,08,54,5.70
2008,11,17,08,55,5.70
2008,11,17,08,56,5.80
2008,11,17,08,57,5.90
2008,11,17,08,58,5.90
2008,11,17,08,59,6.00
2008,11,17,09,00,6.00
2008,11,17,09,01,6.10
2008,11,17,09,02,6.10
2008,11,17,09,03,6.20
2008,11,17,09,04,6.30
2008,11,17,09,05,6.30
2008,11,17,09,06,6.40
2008,11,17,09,07,6.40
2008,11,17,09,08,6.50
2008,11,17,09,09,6.60
2008,11,17,09,10,6.80
2008,11,17,09,11,6.90
2008,11,17,09,12,7.00
2008,11,17,09,13,7.10
2008,11,17,09,14,7.20
2008,11,17,09,15,7.30
2008,11,17,09,16,7.30
2008,11,17,09,17,7.40
2008,11,17,09,18,7.50
2008,11,17,09,19,7.50
2008,11,17,09,20,7.60
2008,11,17,09,21,7.70
2008,11,17,09,22,7.80
2008,11,17,09,23,7.90
2008,11,17,09,24,8.00
2008,11,17,09,25,8.10
2008,11,17,09,26,8.30
2008,11,17,09,27,8.30
2008,11,17,09,28,8.40
2008,11,17,09,29,8.40
2008,11,17,09,30,8.50
2008,11,17,09,31,8.60
2008,11,17,09,32,8.70
2008,11,17,09,33,8.80
2008,11,17,09,34,8.90
2008,11,17,09,35,9.10
2008,11,17,09,36,9.20
2008,11,17,09,37,9.30
2008,11,17,09,38,9.40
2008,11,17,09,39,9.40
2008,11,17,09,40,9.50
2008,11,17,09,41,9.60
2008,11,17,09,42,9.70
2008,11,17,09,43,9.70
2008,11,17,09,44,9.70
2008,11,17,09,45,9.70
2008,11,17,09,46,9.80
2008,11,17,09,47,9.80
2008,11,17,09,48,9.80
2008,11,17,09,49,9.80
2008,11,17,09,50,9.80
2008,11,17,09,51,9.80
2008,11,17,09,52,9.80
2008,11,17,09,53,9.90
2008,11,17,09,54,9.90
2008,11,17,09,55,9.90
2008,11,17,09,56,10.00
2008,11,17,09,57,10.10
2008,11,17,09,58,10.10
2008,11,17,09,59,10.10
2008,11,17,10,00,10.10
2008,11,17,10,01,10.10
2008,11,17,10,02,10.10
2008,11,17,10,03,10.20
2008,11,17,10,04,10.30
2008,11,17,10,05,10.30
2008,11,17,10,06,10.30
2008,11,17,10,07,10.30
2008,11,17,10,08,10.30
2008,11,17,10,09,10.30
2008,11,17,10,10,10.30
2008,11,17,10,11,10.40
2008,11,17,10,12,10.40
2008,11,17,10,13,10.40
2008,11,17,10,14,10.40
2008,11,17,10,15,10.40
2008,11,17,10,16,10.40
2008,11,17,10,17,10.40
2008,11,17,10,18,10.40
2008,11,17,10,19,10.40
2008,11,17,10,20,10.40
2008,11,17,10,21,10.60
2008,11,17,10,22,10.60
2008,11,17,10,23,10.60
2008,11,17,10,24,10.60
2008,11,17,10,25,10.60
2008,11,17,10,26,10.60
2008,11,17,10,27,10.60
2008,11,17,10,28,10.70
2008,11,17,10,29,10.70
2008,11,17,10,30,10.80
2008,11,17,10,31,10.70
2008,11,17,10,32,10.60
2008,11,17,10,33,10.60
2008,11,17,10,34,10.60
2008,11,17,10,35,10.60
2008,11,17,10,36,10.60
2008,11,17,10,37,10.60
2008,11,17,10,38,10.40
2008,11,17,10,39,10.50
2008,11,17,10,40,10.60
2008,11,17,10,41,10.60
2008,11,17,10,42,10.60
2008,11,17,10,43,10.60
2008,11,17,10,44,10.60
2008,11,17,10,45,10.50
2008,11,17,10,46,10.40
2008,11,17,10,47,10.40
2008,11,17,10,48,10.40
2008,11,17,10,49,10.40
2008,11,17,10,50,10.20
2008,11,17,10,51,10.20
2008,11,17,10,52,10.10
2008,11,17,10,53,10.10
2008,11,17,10,54,10.00
2008,11,17,10,55,9.90
2008,11,17,10,56,9.90
2008,11,17,10,57,9.90
2008,11,17,10,58,9.80
2008,11,17,10,59,9.70
2008,11,17,11,00,9.70
2008,11,17,11,01,9.60
2008,11,17,11,02,9.60
2008,11,17,11,03,9.50
2008,11,17,11,04,9.50
2008,11,17,11,05,9.50
2008,11,17,11,06,9.60
2008,11,17,11,07,9.60
2008,11,17,11,08,9.70
2008,11,17,11,09,9.60
2008,11,17,11,10,9.50
2008,11,17,11,11,9.50
2008,11,17,11,12,9.40
2008,11,17,11,13,9.30
2008,11,17,11,14,9.30
2008,11,17,11,15,9.40
2008,11,17,11,16,9.40
2008,11,17,11,17,9.40
2008,11,17,11,18,9.40
2008,11,17,11,19,9.40
2008,11,17,11,20,9.30
2008,11,17,11,21,9.30
2008,11,17,11,22,9.40
2008,11,17,11,23,9.40
2008,11,17,11,24,9.40
2008,11,17,11,25,9.50
2008,11,17,11,26,9.50
2008,11,17,11,27,9.50
2008,11,17,11,28,9.60
2008,11,17,11,29,9.70
2008,11,17,11,30,9.70
2008,11,17,11,31,9.80
2008,11,17,11,32,9.80
2008,11,17,11,33,9.80
2008,11,17,11,34,9.80
2008,11,17,11,35,9.70
2008,11,17,11,36,9.80
2008,11,17,11,37,9.90
2008,11,17,11,38,9.90
2008,11,17,11,39,9.90
2008,11,17,11,40,9.80
2008,11,17,11,41,9.70
2008,11,17,11,42,9.70
2008,11,17,11,43,9.70
2008,11,17,11,44,9.70
2008,11,17,11,45,9.70
2008,11,17,11,46,9.70
2008,11,17,11,47,9.70
2008,11,17,11,48,9.70
2008,11,17,11,49,9.70
2008,11,17,11,50,9.70
2008,11,17,11,51,9.60
2008,11,17,11,52,9.40
2008,11,17,11,53,9.40
2008,11,17,11,54,9.40
2008,11,17,11,55,9.30
2008,11,17,11,56,9.30
2008,11,17,11,57,9.30
2008,11,17,11,58,9.30
2008,11,17,11,59,9.20
2008,11,17,12,00,9.20
2008,11,17,12,01,9.10
2008,11,17,12,02,9.10
2008,11,17,12,03,9.10
2008,11,17,12,04,9.10
2008,11,17,12,05,9.10
2008,11,17,12,06,9.10
2008,11,17,12,07,9.10
2008,11,17,12,08,9.10
2008,11,17,12,09,9.10
2008,11,17,12,10,9.10
2008,11,17,12,11,9.00
2008,11,17,12,12,9.00
2008,11,17,12,13,8.90
2008,11,17,12,14,8.90
2008,11,17,12,15,8.90
2008,11,17,12,16,9.00
2008,11,17,12,17,9.00
2008,11,17,12,18,9.10
2008,11,17,12,19,9.00
2008,11,17,12,20,8.90
2008,11,17,12,21,8.90
2008,11,17,12,22,9.00
2008,11,17,12,23,9.00
2008,11,17,12,24,9.00
2008,11,17,12,25,9.00
2008,11,17,12,26,9.00
2008,11,17,12,27,9.00
2008,11,17,12,28,9.10
2008,11,17,12,29,9.10
2008,11,17,12,30,9.20
2008,11,17,12,31,9.20
2008,11,17,12,32,9.20
2008,11,17,12,33,9.10
2008,11,17,12,34,9.10
2008,11,17,12,35,9.10
2008,11,17,12,36,9.00
2008,11,17,12,37,9.00
2008,11,17,12,38,9.00
2008,11,17,12,39,9.00
2008,11,17,12,40,9.10
2008,11,17,12,41,9.10
2008,11,17,12,42,9.10
2008,11,17,12,43,9.00
2008,11,17,12,44,9.00
2008,11,17,12,45,8.90
2008,11,17,12,46,8.90
2008,11,17,12,47,8.90
2008,11,17,12,48,8.90
2008,11,17,12,49,8.80
2008,11,17,12,50,8.80
2008,11,17,12,51,8.70
2008,11,17,12,52,8.70
2008,11,17,12,53,8.70
2008,11,17,12,54,8.70
2008,11,17,12,55,8.80
2008,11,17,12,56,8.80
2008,11,17,12,57,8.80
2008,11,17,12,58,8.80
2008,11,17,12,59,8.80
2008,11,17,13,00,8.80
2008,11,17,13,01,8.80
2008,11,17,13,02,8.80
2008,11,17,13,03,8.80
2008,11,17,13,04,8.80
2008,11,17,13,05,8.80
2008,11,17,13,57,8.80
2008,11,17,13,58,8.80
2008,11,17,13,59,8.80
2008,11,17,14,00,8.80
2008,11,17,14,01,8.80
2008,11,17,14,02,8.80
2008,11,17,14,03,8.80
2008,11,17,14,04,8.80
2008,11,17,14,05,8.80
2008,11,17,14,06,8.80
2008,11,17,14,07,8.80
